カタログに戻る

STARLINK-2538

運用中通信VLEO
NORAD 48300·PAYLOAD·🇺🇸 United States

打ち上げ Apr 29, 2021 から Cape Canaveral Space Force Station

Loading…

次のパス (今後24時間)

TLE

最新Source: CelesTrak SupGP

元期: Sep 14, 2026, 21:29 UTC

1 48300C 21036AA  26257.89562500  .00037216  00000+0  11965-2 0  2573
2 48300  53.1576 287.6411 0001135  86.2071 227.0482 15.31691448    15

AllMySatでSTARLINK-2538をリアルタイム追跡

Download on the App Store